Погода в Большой Халани

Россия / Белгородская область     50°55′24″N   37°25′31″E
В апреле 2022 года жителям России запретили посещать сайт meteo.paraplan.net по решению Генеральной прокуратуры. Аудитория сайта уменьшилась в 10 раз. Владельцы сайта не видят смысла в поддержке погодного сервера в таких условиях. Сайт будет закрыт в октябре.
темп.,
°C
ветер,
м/с
пор.,
м/с
влажн.,
%
обл.,
%
осадки,
мм/ч
давл.,
гПа
погр.,
м
30 сентября, пт
пт3000:00+12юв228980 0.0 101523
03:00+12юв3589100 0.0 101682
06:00+12ююв349294 0.0 101670
09:00+14ююв2384100 0.0 101782
12:00+20ю696250 0.0 1016821
15:00+22ююз685467 0.0 10161327
18:00+17ююз367358 0.0 1017129
21:00+16ю3977100 0.1 1017203
1 октября, сб
сб100:00+15ю31193100 2.8 1017388
03:00+14ю3896100 4.6 1017228
06:00+13ю369832 0.3 1017148
09:00+17ююз47875 0.6 1017308
12:00+21юз576969 0.0 1016745
15:00+22юз685894 0.0 10151140
18:00+18ююз3874100 0.0 1014171
21:00+17зюз5117799 0.0 1014361
2 октября, вс
вс200:00+15з378670 0.0 1014152
03:00+14зюз2285100 0.0 101321
06:00+14ю1183100 0.0 101211
09:00+16юв3576100 0.0 1011239
12:00+18ююв4882100 1.4 1009591
15:00+19ю5876100 2.1 1006790
18:00+16ююз51084100 1.8 1004430
21:00+15ююв61391100 6.6 1002735
3 октября, пн
пн300:00+15ююв81690100 0.9 998894
03:00+14зюз4697100 10.4 996454
06:00+10зсз61091100 3.8 998595
09:00+10з6985100 3.9 1001945
12:00+12з687099 0.1 10031211
15:00+11зюз5778100 0.3 1006875
18:00+9зюз598295 0.1 1009702
21:00+8юз368029 0.1 1011232
4 октября, вт
вт400:00+7ююз37905 0.0 1012168
03:00+6юз37935 0.0 1013141
06:00+6ююз36935 0.0 1014119
09:00+10ююз58805 0.0 1015480
12:00+13ююз6870100 0.2 1016816
15:00+13ююз576574 0.6 10161145
18:00+11ююз4876100 0.6 1017175
21:00+10юз4983100 0.7 1018360